Time,TemperatureF,DewpointF,PressureIn,WindDirection,WindDirectionDegrees,WindSpeedMPH,WindSpeedGustMPH,Humidity,HourlyPrecipIn,Conditions,Clouds,dailyrainin,SoftwareType,DateUTC
2013-06-28 07:54:00,69.8,67.0,29.56,NNW,338,0.8,0.8,91,0.00,,,0.00,WUHU216HW,2013-06-28 12:54:00,
2013-06-28 07:59:00,70.3,67.4,29.56,WNW,293,0.0,1.3,91,0.00,,,0.00,WUHU216HW,2013-06-28 12:59:00,
2013-06-28 08:04:00,70.5,67.7,29.55,North,0,1.5,1.5,91,0.00,,,0.00,WUHU216HW,2013-06-28 13:04:00,
2013-06-28 08:09:00,70.5,67.7,29.56,NNW,338,0.0,1.5,91,0.00,,,0.00,WUHU216HW,2013-06-28 13:09:00,
2013-06-28 08:14:00,70.8,68.1,29.55,North,0,2.9,2.9,91,0.00,,,0.00,WUHU216HW,2013-06-28 13:14:00,
2013-06-28 08:19:00,70.8,68.1,29.56,West,270,0.0,2.9,91,0.00,,,0.00,WUHU216HW,2013-06-28 13:19:00,
2013-06-28 08:24:00,71.4,68.6,29.55,North,0,0.0,0.0,91,0.00,,,0.00,WUHU216HW,2013-06-28 13:24:00,
2013-06-28 08:29:00,71.4,68.6,29.55,NW,315,0.0,0.0,91,0.00,,,0.00,WUHU216HW,2013-06-28 13:29:00,
2013-06-28 08:34:00,71.9,69.2,29.56,NNE,23,0.0,0.0,91,0.00,,,0.00,WUHU216HW,2013-06-28 13:34:00,
2013-06-28 08:39:00,72.1,69.3,29.55,West,270,0.0,1.5,91,0.00,,,0.00,WUHU216HW,2013-06-28 13:39:00,
2013-06-28 08:44:00,72.3,69.2,29.56,NW,315,0.0,1.5,90,0.00,,,0.00,WUHU216HW,2013-06-28 13:44:00,
2013-06-28 08:49:00,72.6,69.6,29.55,West,270,2.9,2.9,90,0.00,,,0.00,WUHU216HW,2013-06-28 13:49:00,
2013-06-28 08:54:00,72.8,69.4,29.55,NNW,338,0.0,2.9,89,0.00,,,0.00,WUHU216HW,2013-06-28 13:54:00,
2013-06-28 08:59:00,73.0,69.2,29.55,NNE,23,2.4,5.1,88,0.00,,,0.00,WUHU216HW,2013-06-28 13:59:00,
2013-06-28 09:04:00,73.5,69.8,29.55,SW,225,2.4,5.1,88,0.00,,,0.00,WUHU216HW,2013-06-28 14:04:00,
2013-06-28 09:09:00,73.7,70.0,29.55,West,270,0.0,2.4,88,0.00,,,0.00,WUHU216HW,2013-06-28 14:09:00,
2013-06-28 09:14:00,74.1,69.8,29.55,SW,225,0.0,2.4,87,0.00,,,0.00,WUHU216HW,2013-06-28 14:14:00,
2013-06-28 09:19:00,74.4,70.0,29.55,West,270,1.3,2.2,86,0.00,,,0.00,WUHU216HW,2013-06-28 14:19:00,
2013-06-28 09:24:00,74.4,70.0,29.56,NW,315,0.0,1.3,86,0.00,,,0.00,WUHU216HW,2013-06-28 14:24:00,
2013-06-28 09:29:00,74.8,70.4,29.56,North,0,0.0,1.3,86,0.00,,,0.00,WUHU216HW,2013-06-28 14:29:00,
2013-06-28 09:34:00,75.3,70.5,29.56,NNE,23,0.0,0.0,85,0.00,,,0.00,WUHU216HW,2013-06-28 14:34:00,
2013-06-28 09:39:00,75.5,70.4,29.56,WNW,293,0.0,1.5,84,0.00,,,0.00,WUHU216HW,2013-06-28 14:39:00,
2013-06-28 09:44:00,75.9,70.7,29.56,North,0,4.0,4.0,84,0.00,,,0.00,WUHU216HW,2013-06-28 14:44:00,
2013-06-28 09:49:00,76.2,70.3,29.56,WNW,293,7.1,7.1,82,0.00,,,0.00,WUHU216HW,2013-06-28 14:49:00,
2013-06-28 09:54:00,76.2,69.6,29.56,WNW,293,1.7,7.1,80,0.00,,,0.00,WUHU216HW,2013-06-28 14:54:00,
2013-06-28 09:59:00,76.8,69.7,29.56,NNW,338,1.1,7.1,79,0.00,,,0.00,WUHU216HW,2013-06-28 14:59:00,
2013-06-28 10:04:00,77.1,69.3,29.56,North,0,0.0,5.1,77,0.00,,,0.00,WUHU216HW,2013-06-28 15:04:00,
2013-06-28 10:09:00,77.3,69.5,29.56,NNW,338,2.9,5.1,77,0.00,,,0.00,WUHU216HW,2013-06-28 15:09:00,
2013-06-28 10:14:00,77.7,69.5,29.56,North,0,7.3,7.3,76,0.00,,,0.00,WUHU216HW,2013-06-28 15:14:00,
2013-06-28 10:19:00,78.2,70.0,29.55,WNW,293,3.1,7.3,76,0.00,,,0.00,WUHU216HW,2013-06-28 15:19:00,
2013-06-28 10:24:00,78.4,70.1,29.55,WNW,293,0.0,7.3,76,0.00,,,0.00,WUHU216HW,2013-06-28 15:24:00,
2013-06-28 10:29:00,78.6,70.3,29.55,North,0,0.0,3.1,76,0.00,,,0.00,WUHU216HW,2013-06-28 15:29:00,
2013-06-28 10:34:00,78.6,69.9,29.55,NNW,338,5.3,5.3,75,0.00,,,0.00,WUHU216HW,2013-06-28 15:34:00,
2013-06-28 10:39:00,78.6,69.9,29.56,WNW,293,0.0,5.3,75,0.00,,,0.00,WUHU216HW,2013-06-28 15:39:00,
2013-06-28 10:44:00,78.4,70.1,29.56,WSW,248,0.0,5.3,76,0.00,,,0.00,WUHU216HW,2013-06-28 15:44:00,
2013-06-28 10:49:00,78.6,70.3,29.55,WNW,293,0.0,5.1,76,0.00,,,0.00,WUHU216HW,2013-06-28 15:49:00,
2013-06-28 10:54:00,78.9,70.7,29.56,NNW,338,0.0,5.1,76,0.00,,,0.00,WUHU216HW,2013-06-28 15:54:00,
2013-06-28 10:59:00,79.3,70.7,29.56,SE,135,0.0,9.1,75,0.00,,,0.00,WUHU216HW,2013-06-28 15:59:00,
2013-06-28 11:04:00,79.5,70.0,29.56,NNW,338,8.2,9.1,73,0.00,,,0.00,WUHU216HW,2013-06-28 16:04:00,
2013-06-28 11:09:00,79.7,70.6,29.56,WNW,293,3.1,8.2,74,0.00,,,0.00,WUHU216HW,2013-06-28 16:09:00,
2013-06-28 11:14:00,80.0,70.2,29.55,NW,315,0.0,8.2,72,0.00,,,0.00,WUHU216HW,2013-06-28 16:14:00,
2013-06-28 11:19:00,80.4,70.1,29.55,North,0,0.0,5.8,71,0.00,,,0.00,WUHU216HW,2013-06-28 16:19:00,
2013-06-28 11:24:00,80.6,70.7,29.55,NW,315,0.0,5.5,72,0.00,,,0.00,WUHU216HW,2013-06-28 16:24:00,
2013-06-28 11:29:00,80.9,71.0,29.55,WNW,293,3.5,6.0,72,0.00,,,0.00,WUHU216HW,2013-06-28 16:29:00,
2013-06-28 11:34:00,81.5,71.1,29.55,NW,315,0.0,6.0,71,0.00,,,0.00,WUHU216HW,2013-06-28 16:34:00,
2013-06-28 11:39:00,81.5,71.1,29.55,West,270,4.9,4.9,71,0.00,,,0.00,WUHU216HW,2013-06-28 16:39:00,
2013-06-28 11:44:00,81.6,71.2,29.56,NNW,338,0.0,8.5,70,0.00,,,0.00,WUHU216HW,2013-06-28 16:44:00,
2013-06-28 11:49:00,82.0,70.8,29.56,NW,315,3.8,11.1,69,0.00,,,0.00,WUHU216HW,2013-06-28 16:49:00,
2013-06-28 11:54:00,81.6,68.2,29.56,NNE,23,0.0,11.1,64,0.00,,,0.00,WUHU216HW,2013-06-28 16:54:00,
2013-06-28 11:59:00,81.1,66.8,29.56,NNE,23,0.0,8.9,62,0.00,,,0.00,WUHU216HW,2013-06-28 16:59:00,
2013-06-28 12:04:00,81.5,67.6,29.56,NNW,338,0.0,7.3,63,0.00,,,0.00,WUHU216HW,2013-06-28 17:04:00,
2013-06-28 12:09:00,82.0,68.5,29.56,North,0,6.9,7.3,64,0.00,,,0.00,WUHU216HW,2013-06-28 17:09:00,
2013-06-28 12:14:00,82.4,68.0,29.55,WNW,293,7.1,7.1,62,0.00,,,0.00,WUHU216HW,2013-06-28 17:14:00,
2013-06-28 12:19:00,82.9,69.4,29.55,West,270,0.0,7.1,64,0.00,,,0.00,WUHU216HW,2013-06-28 17:19:00,
2013-06-28 12:24:00,83.1,69.1,29.55,WNW,293,0.0,7.1,63,0.00,,,0.00,WUHU216HW,2013-06-28 17:24:00,
2013-06-28 12:29:00,83.4,69.5,29.55,NNE,23,8.2,8.2,61,0.00,,,0.00,WUHU216HW,2013-06-28 17:29:00,
2013-06-28 12:34:00,83.8,68.5,29.55,WNW,293,0.0,8.2,60,0.00,,,0.00,WUHU216HW,2013-06-28 17:34:00,
2013-06-28 12:39:00,83.8,68.5,29.55,NW,315,3.1,8.2,60,0.00,,,0.00,WUHU216HW,2013-06-28 17:39:00,
2013-06-28 12:44:00,84.0,68.7,29.55,West,270,0.0,6.2,60,0.00,,,0.00,WUHU216HW,2013-06-28 17:44:00,
2013-06-28 12:49:00,84.0,67.1,29.55,NNE,23,8.0,8.0,57,0.00,,,0.00,WUHU216HW,2013-06-28 17:49:00,
2013-06-28 12:54:00,83.8,66.9,29.55,North,0,0.0,8.0,57,0.00,,,0.00,WUHU216HW,2013-06-28 17:54:00,
2013-06-28 12:59:00,84.0,65.5,29.55,North,0,0.0,8.0,54,0.00,,,0.00,WUHU216HW,2013-06-28 17:59:00,
2013-06-28 13:04:00,84.0,66.1,29.55,NNW,338,0.0,1.7,55,0.00,,,0.00,WUHU216HW,2013-06-28 18:04:00,
2013-06-28 13:09:00,84.0,66.6,29.55,WNW,293,0.0,7.8,56,0.00,,,0.00,WUHU216HW,2013-06-28 18:09:00,
2013-06-28 13:14:00,84.2,65.7,29.54,NW,315,8.2,8.2,53,0.00,,,0.00,WUHU216HW,2013-06-28 18:14:00,
2013-06-28 13:19:00,84.0,64.5,29.54,NNE,23,4.2,12.5,52,0.00,,,0.00,WUHU216HW,2013-06-28 18:19:00,
2013-06-28 13:24:00,84.2,65.2,29.54,North,0,0.2,12.9,53,0.00,,,0.00,WUHU216HW,2013-06-28 18:24:00,
2013-06-28 13:29:00,84.5,65.5,29.54,North,0,2.4,12.9,53,0.00,,,0.00,WUHU216HW,2013-06-28 18:29:00,
2013-06-28 13:34:00,84.5,65.0,29.54,NNW,338,11.8,11.8,52,0.00,,,0.00,WUHU216HW,2013-06-28 18:34:00,
2013-06-28 13:39:00,84.7,64.6,29.54,NNW,338,4.4,11.8,51,0.00,,,0.00,WUHU216HW,2013-06-28 18:39:00,
2013-06-28 13:44:00,84.7,64.6,29.54,NW,315,10.5,11.8,51,0.00,,,0.00,WUHU216HW,2013-06-28 18:44:00,
2013-06-28 13:49:00,84.7,64.6,29.53,NNE,23,4.2,10.5,52,0.00,,,0.00,WUHU216HW,2013-06-28 18:49:00,
2013-06-28 13:54:00,84.7,64.6,29.53,North,0,5.5,10.5,51,0.00,,,0.00,WUHU216HW,2013-06-28 18:54:00,
2013-06-28 13:59:00,84.9,64.3,29.53,WNW,293,6.7,7.1,50,0.00,,,0.00,WUHU216HW,2013-06-28 18:59:00,
2013-06-28 14:04:00,85.1,63.8,29.53,NW,315,7.3,10.7,49,0.00,,,0.00,WUHU216HW,2013-06-28 19:04:00,
2013-06-28 14:09:00,85.1,63.8,29.53,NNW,338,7.8,10.7,49,0.00,,,0.00,WUHU216HW,2013-06-28 19:09:00,
2013-06-28 14:14:00,85.2,63.3,29.53,NNW,338,7.8,7.8,48,0.00,,,0.00,WUHU216HW,2013-06-28 19:14:00,
2013-06-28 14:19:00,85.2,63.3,29.53,West,270,5.3,13.8,48,0.00,,,0.00,WUHU216HW,2013-06-28 19:19:00,
2013-06-28 14:24:00,85.6,64.3,29.53,North,0,0.0,13.8,49,0.00,,,0.00,WUHU216HW,2013-06-28 19:24:00,
2013-06-28 14:29:00,85.8,64.5,29.53,North,0,3.1,6.7,49,0.00,,,0.00,WUHU216HW,2013-06-28 19:29:00,
2013-06-28 14:34:00,85.8,63.8,29.52,North,0,9.1,9.1,48,0.00,,,0.00,WUHU216HW,2013-06-28 19:34:00,
2013-06-28 14:39:00,85.8,65.1,29.53,NE,45,0.0,9.1,50,0.00,,,0.00,WUHU216HW,2013-06-28 19:39:00,
2013-06-28 14:44:00,85.8,63.2,29.52,NNE,23,4.6,9.1,47,0.00,,,0.00,WUHU216HW,2013-06-28 19:44:00,
2013-06-28 14:49:00,85.8,63.2,29.52,NNW,338,6.9,7.6,47,0.00,,,0.00,WUHU216HW,2013-06-28 19:49:00,
2013-06-28 14:54:00,85.8,62.6,29.52,NW,315,6.0,7.6,46,0.00,,,0.00,WUHU216HW,2013-06-28 19:54:00,
2013-06-28 14:59:00,86.0,64.0,29.52,NNW,338,12.0,12.9,48,0.00,,,0.00,WUHU216HW,2013-06-28 19:59:00,
2013-06-28 15:04:00,85.8,63.2,29.52,NE,45,4.6,12.9,47,0.00,,,0.00,WUHU216HW,2013-06-28 20:04:00,
2013-06-28 15:09:00,86.1,64.2,29.52,NNW,338,5.8,12.0,48,0.00,,,0.00,WUHU216HW,2013-06-28 20:09:00,
2013-06-28 15:14:00,86.1,64.2,29.52,NNE,23,8.0,12.5,48,0.00,,,0.00,WUHU216HW,2013-06-28 20:14:00,
2013-06-28 15:19:00,86.1,63.5,29.52,North,0,4.6,12.5,47,0.00,,,0.00,WUHU216HW,2013-06-28 20:19:00,
2013-06-28 15:24:00,86.1,64.2,29.52,East,90,1.1,11.4,48,0.00,,,0.00,WUHU216HW,2013-06-28 20:24:00,
2013-06-28 15:29:00,86.5,63.7,29.52,NNW,338,7.3,7.3,48,0.00,,,0.00,WUHU216HW,2013-06-28 20:29:00,
2013-06-28 15:34:00,86.5,63.8,29.51,NNW,338,7.6,9.1,47,0.00,,,0.00,WUHU216HW,2013-06-28 20:34:00,
2013-06-28 15:39:00,86.7,62.7,29.52,NW,315,7.8,9.1,45,0.00,,,0.00,WUHU216HW,2013-06-28 20:39:00,
2013-06-28 15:44:00,86.5,63.2,29.51,NNW,338,4.6,7.8,46,0.00,,,0.00,WUHU216HW,2013-06-28 20:44:00,
2013-06-28 15:49:00,86.7,62.7,29.51,North,0,7.8,10.0,45,0.00,,,0.00,WUHU216HW,2013-06-28 20:49:00,
2013-06-28 15:54:00,86.7,61.5,29.52,NNW,338,10.5,13.4,43,0.00,,,0.00,WUHU216HW,2013-06-28 20:54:00,
2013-06-28 15:59:00,86.3,61.8,29.51,NW,315,12.5,13.4,44,0.00,,,0.00,WUHU216HW,2013-06-28 20:59:00,
2013-06-28 16:04:00,86.3,61.8,29.51,NNE,23,0.0,12.5,44,0.00,,,0.00,WUHU216HW,2013-06-28 21:04:00,
2013-06-28 16:09:00,86.5,61.3,29.51,NW,315,11.1,12.5,43,0.00,,,0.00,WUHU216HW,2013-06-28 21:09:00,
2013-06-28 16:14:00,86.5,61.3,29.51,NNW,338,6.4,11.1,43,0.00,,,0.00,WUHU216HW,2013-06-28 21:14:00,
2013-06-28 16:19:00,86.3,60.5,29.51,NW,315,2.2,8.0,42,0.00,,,0.00,WUHU216HW,2013-06-28 21:19:00,
2013-06-28 16:24:00,86.5,62.0,29.51,NNW,338,4.9,7.8,44,0.00,,,0.00,WUHU216HW,2013-06-28 21:24:00,
2013-06-28 16:29:00,86.7,61.5,29.51,WNW,293,7.3,10.5,43,0.00,,,0.00,WUHU216HW,2013-06-28 21:29:00,
2013-06-28 16:34:00,87.0,62.4,29.50,SSE,158,0.8,10.5,44,0.00,,,0.00,WUHU216HW,2013-06-28 21:34:00,
2013-06-28 16:39:00,87.0,61.2,29.51,NNW,338,7.8,10.2,42,0.00,,,0.00,WUHU216HW,2013-06-28 21:39:00,
2013-06-28 16:44:00,86.5,61.3,29.51,NE,45,4.2,10.2,43,0.00,,,0.00,WUHU216HW,2013-06-28 21:44:00,
2013-06-28 16:49:00,86.1,61.6,29.50,North,0,0.0,8.9,44,0.00,,,0.00,WUHU216HW,2013-06-28 21:49:00,
2013-06-28 16:54:00,86.3,62.4,29.51,NNW,338,5.8,8.9,45,0.00,,,0.00,WUHU216HW,2013-06-28 21:54:00,
2013-06-28 16:59:00,86.5,62.6,29.50,NNE,23,0.0,8.2,45,0.00,,,0.00,WUHU216HW,2013-06-28 21:59:00,
2013-06-28 17:04:00,86.7,63.4,29.50,NNE,23,1.7,8.2,46,0.00,,,0.00,WUHU216HW,2013-06-28 22:04:00,
2013-06-28 17:09:00,87.0,63.7,29.50,NNW,338,9.3,9.3,46,0.00,,,0.00,WUHU216HW,2013-06-28 22:09:00,
2013-06-28 17:14:00,87.0,62.4,29.50,NNE,23,0.0,9.3,44,0.00,,,0.00,WUHU216HW,2013-06-28 22:14:00,
2013-06-28 17:19:00,86.7,62.7,29.50,NNW,338,6.9,6.9,45,0.00,,,0.00,WUHU216HW,2013-06-28 22:19:00,
2013-06-28 17:24:00,86.7,62.1,29.50,NW,315,0.0,6.9,44,0.00,,,0.00,WUHU216HW,2013-06-28 22:24:00,
2013-06-28 17:29:00,86.7,62.7,29.50,NNW,338,8.7,8.7,45,0.00,,,0.00,WUHU216HW,2013-06-28 22:29:00,
2013-06-28 17:34:00,86.7,61.5,29.50,NW,315,12.3,12.3,43,0.00,,,0.00,WUHU216HW,2013-06-28 22:34:00,
2013-06-28 17:39:00,86.5,60.7,29.50,NNW,338,14.9,14.9,42,0.00,,,0.00,WUHU216HW,2013-06-28 22:39:00,
2013-06-28 17:44:00,86.5,62.0,29.50,North,0,3.3,14.9,44,0.00,,,0.00,WUHU216HW,2013-06-28 22:44:00,
2013-06-28 17:49:00,86.3,61.2,29.50,NNE,23,6.7,14.9,43,0.00,,,0.00,WUHU216HW,2013-06-28 22:49:00,
2013-06-28 17:54:00,86.3,61.2,29.50,NNE,23,10.0,13.1,43,0.00,,,0.00,WUHU216HW,2013-06-28 22:54:00,
2013-06-28 17:59:00,86.3,61.2,29.50,NNW,338,2.4,10.0,43,0.00,,,0.00,WUHU216HW,2013-06-28 22:59:00,
2013-06-28 18:04:00,86.3,61.2,29.50,NNE,23,1.3,5.8,43,0.00,,,0.00,WUHU216HW,2013-06-28 23:04:00,
2013-06-28 18:09:00,86.3,61.2,29.50,North,0,8.9,8.9,43,0.00,,,0.00,WUHU216HW,2013-06-28 23:09:00,
2013-06-28 18:14:00,86.1,58.3,29.50,NNW,338,7.8,12.7,39,0.00,,,0.00,WUHU216HW,2013-06-28 23:14:00,
2013-06-28 18:19:00,85.8,60.0,29.50,North,0,6.0,12.7,42,0.00,,,0.00,WUHU216HW,2013-06-28 23:19:00,
2013-06-28 18:24:00,85.8,60.7,29.50,WNW,293,0.0,7.8,43,0.00,,,0.00,WUHU216HW,2013-06-28 23:24:00,
2013-06-28 18:29:00,86.5,60.7,29.50,North,0,2.9,6.7,42,0.00,,,0.00,WUHU216HW,2013-06-28 23:29:00,
2013-06-28 18:34:00,86.5,62.0,29.49,NE,45,4.4,4.4,44,0.00,,,0.00,WUHU216HW,2013-06-28 23:34:00,
2013-06-28 18:39:00,86.5,60.7,29.50,NNE,23,6.4,6.4,42,0.00,,,0.00,WUHU216HW,2013-06-28 23:39:00,
2013-06-28 18:44:00,86.0,60.2,29.49,NE,45,1.3,8.2,42,0.00,,,0.00,WUHU216HW,2013-06-28 23:44:00,
2013-06-28 18:49:00,85.8,59.4,29.49,NW,315,7.8,8.2,41,0.00,,,0.00,WUHU216HW,2013-06-28 23:49:00,
2013-06-28 18:54:00,85.6,59.9,29.49,NE,45,6.4,7.8,42,0.00,,,0.00,WUHU216HW,2013-06-28 23:54:00,
2013-06-28 18:59:00,85.6,59.9,29.49,North,0,6.0,9.6,42,0.00,,,0.00,WUHU216HW,2013-06-28 23:59:00,
2013-06-28 19:04:00,85.6,59.9,29.49,North,0,8.5,9.6,42,0.00,,,0.00,WUHU216HW,2013-06-29 00:04:00,
2013-06-28 19:09:00,85.2,59.6,29.49,NNW,338,6.2,8.5,42,0.00,,,0.00,WUHU216HW,2013-06-29 00:09:00,
2013-06-28 19:14:00,85.2,59.6,29.49,NNW,338,2.0,6.2,42,0.00,,,0.00,WUHU216HW,2013-06-29 00:14:00,
2013-06-28 19:19:00,85.1,59.4,29.49,NNW,338,1.5,7.6,42,0.00,,,0.00,WUHU216HW,2013-06-29 00:19:00,
2013-06-28 19:24:00,85.1,60.0,29.49,NNW,338,1.1,7.6,43,0.00,,,0.00,WUHU216HW,2013-06-29 00:24:00,
2013-06-28 19:29:00,84.9,59.2,29.49,NNW,338,7.6,7.6,42,0.00,,,0.00,WUHU216HW,2013-06-29 00:29:00,
2013-06-28 19:34:00,84.7,59.1,29.49,NW,315,8.5,8.5,42,0.00,,,0.00,WUHU216HW,2013-06-29 00:34:00,
2013-06-28 19:39:00,84.3,59.4,29.49,WNW,293,0.6,8.5,43,0.00,,,0.00,WUHU216HW,2013-06-29 00:39:00,
2013-06-28 19:44:00,84.0,59.0,29.49,NNW,338,5.5,6.2,43,0.00,,,0.00,WUHU216HW,2013-06-29 00:44:00,
2013-06-28 19:49:00,83.6,58.7,29.50,North,0,3.8,7.1,43,0.00,,,0.00,WUHU216HW,2013-06-29 00:49:00,
2013-06-28 19:54:00,83.4,58.5,29.50,North,0,7.1,7.1,43,0.00,,,0.00,WUHU216HW,2013-06-29 00:54:00,
2013-06-28 19:59:00,83.1,58.8,29.50,NNE,23,0.0,7.1,44,0.00,,,0.00,WUHU216HW,2013-06-29 00:59:00,
2013-06-28 20:00:00,83.1,58.8,29.50,NNE,23,0.0,7.1,44,0.00,,,0.00,WUHU216HW,2013-06-29 01:00:00,
2013-06-28 20:04:00,82.9,58.7,29.50,NNE,23,1.1,6.9,44,0.00,,,0.00,WUHU216HW,2013-06-29 01:04:00,
2013-06-28 20:10:00,82.5,58.3,29.50,NNW,338,3.1,8.0,44,0.00,,,0.00,WUHU216HW,2013-06-29 01:10:00,
2013-06-28 20:14:00,81.6,58.1,29.50,North,0,6.0,8.0,45,0.00,,,0.00,WUHU216HW,2013-06-29 01:14:00,
2013-06-28 20:20:00,81.3,57.8,29.50,NNW,338,5.1,6.0,45,0.00,,,0.00,WUHU216HW,2013-06-29 01:20:00,
2013-06-28 20:25:00,80.7,57.9,29.49,NNW,338,2.4,6.0,46,0.00,,,0.00,WUHU216HW,2013-06-29 01:25:00,
2013-06-28 20:30:00,80.2,57.4,29.49,NNW,338,1.5,2.4,46,0.00,,,0.00,WUHU216HW,2013-06-29 01:30:00,
2013-06-28 20:35:00,79.8,57.7,29.49,North,0,2.9,2.9,47,0.00,,,0.00,WUHU216HW,2013-06-29 01:35:00,
2013-06-28 20:40:00,79.5,57.4,29.49,NNE,23,2.6,2.9,47,0.00,,,0.00,WUHU216HW,2013-06-29 01:40:00,
2013-06-28 20:45:00,78.9,57.5,29.49,North,0,0.0,2.6,48,0.00,,,0.00,WUHU216HW,2013-06-29 01:45:00,
2013-06-28 20:50:00,78.6,57.2,29.49,NNW,338,0.0,4.0,48,0.00,,,0.00,WUHU216HW,2013-06-29 01:50:00,
2013-06-28 20:55:00,78.4,57.7,29.49,North,0,0.0,4.0,49,0.00,,,0.00,WUHU216HW,2013-06-29 01:55:00,
2013-06-28 21:00:00,78.0,57.3,29.49,North,0,0.8,2.4,49,0.00,,,0.00,WUHU216HW,2013-06-29 02:00:00,
2013-06-28 21:05:00,77.9,57.8,29.49,NNW,338,0.0,2.4,50,0.00,,,0.00,WUHU216HW,2013-06-29 02:05:00,
2013-06-28 21:10:00,77.5,57.5,29.49,NNW,338,0.0,0.8,50,0.00,,,0.00,WUHU216HW,2013-06-29 02:10:00,
2013-06-28 21:15:00,77.3,57.3,29.49,NNW,338,0.0,0.0,50,0.00,,,0.00,WUHU216HW,2013-06-29 02:15:00,
2013-06-28 21:20:00,77.1,57.6,29.49,NNW,338,1.1,1.1,51,0.00,,,0.00,WUHU216HW,2013-06-29 02:20:00,
2013-06-28 21:25:00,76.8,57.3,29.48,NNW,338,0.0,2.9,51,0.00,,,0.00,WUHU216HW,2013-06-29 02:25:00,
2013-06-28 21:30:00,76.6,57.2,29.49,North,0,1.1,2.9,51,0.00,,,0.00,WUHU216HW,2013-06-29 02:30:00,
2013-06-28 21:35:00,76.2,56.8,29.49,NNW,338,1.1,1.1,51,0.00,,,0.00,WUHU216HW,2013-06-29 02:35:00,
2013-06-28 21:40:00,76.1,57.2,29.49,NNW,338,0.0,1.1,52,0.00,,,0.00,WUHU216HW,2013-06-29 02:40:00,
2013-06-28 21:45:00,75.9,56.5,29.49,NW,315,0.0,1.1,51,0.00,,,0.00,WUHU216HW,2013-06-29 02:45:00,
2013-06-28 21:50:00,75.7,56.8,29.49,North,0,0.0,0.0,52,0.00,,,0.00,WUHU216HW,2013-06-29 02:50:00,
2013-06-28 21:55:00,75.5,56.7,29.49,NW,315,0.0,0.0,52,0.00,,,0.00,WUHU216HW,2013-06-29 02:55:00,
2013-06-28 22:00:00,75.3,56.5,29.50,NW,315,0.0,0.0,52,0.00,,,0.00,WUHU216HW,2013-06-29 03:00:00,
2013-06-28 22:05:00,75.0,56.2,29.50,WNW,293,0.0,0.0,52,0.00,,,0.00,WUHU216HW,2013-06-29 03:05:00,
2013-06-28 22:10:00,74.8,56.5,29.49,WNW,293,0.0,0.0,53,0.00,,,0.00,WUHU216HW,2013-06-29 03:10:00,
2013-06-28 22:15:00,74.6,56.3,29.49,WNW,293,0.0,0.0,53,0.00,,,0.00,WUHU216HW,2013-06-29 03:15:00,
2013-06-28 22:20:00,74.6,56.3,29.50,WNW,293,0.0,0.0,53,0.00,,,0.00,WUHU216HW,2013-06-29 03:20:00,
2013-06-28 22:25:00,74.6,56.3,29.49,WNW,293,0.0,0.0,53,0.00,,,0.00,WUHU216HW,2013-06-29 03:25:00,
2013-06-28 22:30:00,73.7,56.4,29.49,WNW,293,0.0,0.0,55,0.00,,,0.00,WUHU216HW,2013-06-29 03:30:00,
2013-06-28 22:35:00,73.2,55.9,29.49,WNW,293,0.0,0.0,55,0.00,,,0.00,WUHU216HW,2013-06-29 03:35:00,
2013-06-28 22:40:00,73.0,55.9,29.49,WNW,293,0.0,0.0,55,0.00,,,0.00,WUHU216HW,2013-06-29 03:40:00,
2013-06-28 22:45:00,73.0,56.3,29.49,WNW,293,0.0,0.0,56,0.00,,,0.00,WUHU216HW,2013-06-29 03:45:00,
2013-06-28 22:50:00,72.6,55.9,29.49,WNW,293,0.0,0.0,56,0.00,,,0.00,WUHU216HW,2013-06-29 03:50:00,
2013-06-28 22:55:00,72.6,55.9,29.49,WNW,293,0.0,0.0,56,0.00,,,0.00,WUHU216HW,2013-06-29 03:55:00,
2013-06-28 23:00:00,72.6,55.9,29.49,WNW,293,0.0,0.0,56,0.00,,,0.00,WUHU216HW,2013-06-29 04:00:00,
2013-06-28 23:01:00,72.6,55.9,29.49,WNW,293,0.0,0.0,56,0.00,,,0.00,WUHU216HW,2013-06-29 04:01:00,
2013-06-28 23:41:00,71.0,0.0,29.48,WNW,293,0.0,0.0,61,0.00,,,0.00,WUHU216HW,2013-06-29 04:41:00,
2013-06-28 23:46:00,70.8,56.9,29.48,NW,315,0.0,0.0,61,0.00,,,0.00,WUHU216HW,2013-06-29 04:46:00,
2013-06-28 23:51:00,70.8,57.2,29.48,WNW,293,0.0,0.0,62,0.00,,,0.00,WUHU216HW,2013-06-29 04:51:00,
2013-06-28 23:56:00,70.8,57.2,29.48,NW,315,0.0,0.0,62,0.00,,,0.00,WUHU216HW,2013-06-29 04:56:00,